Theta_e
280 281 281 282 282 282 282 281 279 275 278 284 288 296 299 302 302 305 304 302 306 308 314 319 319 321 324 327 328 327 328 326 324 324 325 325 326 327
279 279 279 280 280 281 281 280 280 279 277 284 285 289 294 298 299 302 304 299 302 304 306 317 317 318 321 324 324 326 326 325 324 324 324 325 325 326
276 277 277 278 278 279 279 279 280 279 275 279 284 290 289 294 300 302 301 301 301 302 303 315 314 316 318 321 322 323 323 323 322 323 323 324 325 325
272 273 274 275 275 277 277 277 277 278 277 275 283 285 287 290 299 298 301 302 302 302 303 312 314 315 317 318 318 318 318 319 319 320 321 322 323 323
270 270 271 272 273 274 274 275 276 276 277 276 278 285 286 291 297 298 298 298 299 300 303 304 312 313 315 317 316 315 314 314 315 315 317 319 320 320
271 271 272 272 272 272 273 274 275 274 275 275 277 282 284 291 296 294 294 295 295 299 301 302 311 310 314 315 313 311 311 312 313 313 313 315 315 316
272 272 273 273 274 275 274 274 274 274 274 275 277 281 282 289 291 294 288 290 291 298 298 303 314 315 315 311 308 307 311 311 312 311 311 312 312 313
271 272 272 273 274 276 277 278 278 275 274 274 276 277 280 286 291 291 289 287 285 294 298 301 315 315 316 316 310 310 311 311 311 311 310 310 310 311
272 272 273 274 275 275 277 278 278 280 280 279 277 278 280 283 289 289 288 286 286 289 290 287 312 313 315 314 309 309 310 310 310 311 310 309 309 308
272 272 272 274 275 276 276 276 277 277 278 279 279 280 284 286 286 289 288 286 285 287 288 285 307 310 314 314 308 309 309 309 309 309 310 310 308 308
273 273 273 273 275 276 275 275 277 279 280 281 281 283 287 288 290 287 285 285 284 285 289 290 295 307 309 308 309 308 307 307 307 307 308 309 308 306
273 274 275 274 276 277 276 276 275 278 278 278 280 281 284 288 288 288 286 283 284 284 290 289 304 305 301 305 308 307 307 305 305 306 306 307 307 314
272 272 273 274 275 276 277 276 278 280 279 278 279 281 284 285 287 289 288 285 284 284 289 291 301 304 297 300 304 306 308 306 309 307 306 306 306 314
270 271 272 274 276 277 277 278 280 281 281 279 278 281 283 284 286 287 288 288 288 288 289 292 300 302 300 300 300 304 307 307 309 307 308 307 307 309
271 272 272 272 275 275 276 278 278 278 278 280 279 280 284 286 286 287 288 289 289 288 291 294 302 305 304 302 301 302 303 304 307 307 308 307 309 311
270 267 269 271 272 275 275 277 278 278 279 279 282 282 285 285 285 288 287 288 287 288 293 296 299 304 303 303 303 302 305 301 305 306 307 308 310 311
266 265 266 267 268 268 269 271 272 274 276 280 283 283 283 285 286 288 287 287 285 289 294 296 300 305 305 303 300 302 303 303 305 304 302 302 305 306
263 262 263 264 266 266 267 268 269 270 272 273 280 284 283 285 285 286 286 286 287 294 296 298 299 299 298 294 300 301 302 302 302 300 302 301 301 304
261 261 262 263 264 266 266 266 267 269 270 271 273 275 284 285 285 285 286 286 292 297 298 298 298 298 294 293 288 301 300 300 298 298 302 302 300 300
262 261 261 263 263 265 265 266 266 268 269 269 270 272 275 279 285 285 286 290 295 296 295 296 298 298 297 296 293 299 298 299 299 300 301 303 300 296
260 261 262 263 263 264 265 265 265 267 267 267 268 269 272 274 282 286 290 291 293 295 293 294 299 298 301 296 293 294 298 295 300 302 302 299 295 294
260 261 262 263 264 265 265 266 265 267 266 265 266 267 269 269 285 289 290 291 293 295 295 298 297 298 297 296 295 295 297 296 294 295 297 298 296 294
260 261 262 263 264 265 266 266 265 267 266 265 265 266 267 269 282 290 288 291 292 294 295 294 294 296 296 297 295 295 295 293 296 296 298 292 292 293
Wind_Speed
17 18 16 13 13 14 14 15 15 19 20 16 16 16 15 16 17 18 19 21 17 21 34 32 31 32 34 41 41 38 41 43 41 42 40 37 35 34
13 19 17 15 16 14 14 14 16 17 21 14 15 20 21 17 21 20 17 14 19 24 29 34 33 36 35 37 39 44 45 45 43 41 40 37 35 34
19 20 22 21 15 14 14 15 15 15 20 17 17 18 21 23 22 17 11 13 12 24 22 34 30 32 34 37 39 45 47 44 42 39 40 37 36 35
20 21 22 16 21 18 15 19 16 18 17 22 17 17 21 24 23 17 11 8 11 16 21 38 34 33 35 36 39 44 44 40 40 38 36 39 36 37
20 21 22 21 20 16 18 17 15 14 16 16 18 16 15 19 14 13 13 12 10 18 18 23 33 35 38 41 41 44 40 39 40 35 34 35 36 37
21 21 22 21 21 21 18 18 16 16 16 15 16 16 14 21 10 10 10 7 9 9 12 19 27 32 40 43 43 41 41 40 38 33 34 35 34 33
21 21 21 23 30 28 16 17 18 15 15 15 14 15 14 15 10 7 5 7 11 9 9 17 17 20 25 41 37 41 42 40 42 38 34 35 34 33
20 20 21 24 24 33 34 37 29 19 20 15 15 16 16 16 8 8 7 6 9 1 10 17 18 20 23 25 42 45 44 42 40 41 39 36 34 32
21 20 18 16 22 20 27 34 32 34 34 23 21 20 18 16 13 8 4 3 8 9 10 16 15 18 22 25 44 43 45 45 46 41 40 36 32 28
20 20 21 21 21 21 20 21 22 22 22 18 21 20 22 19 17 8 3 5 8 9 6 9 18 17 18 20 46 46 40 38 37 40 40 39 35 31
19 20 20 21 27 33 23 22 23 18 22 34 35 36 36 32 20 5 6 6 10 11 3 10 18 16 16 18 23 38 39 35 35 34 34 35 36 31
20 20 25 23 31 32 22 19 19 20 17 17 17 22 25 23 31 19 7 9 9 11 10 12 15 16 14 14 19 16 16 29 31 32 32 35 37 21
15 16 15 30 34 34 34 20 19 21 18 15 15 14 13 12 11 10 11 10 11 12 17 13 5 16 7 17 16 17 18 17 16 21 32 34 37 28
17 15 17 33 35 34 28 30 33 29 13 12 13 13 13 11 12 11 12 11 13 18 17 14 14 14 12 17 17 15 16 16 17 17 17 26 36 33
15 25 34 34 30 24 26 27 24 13 13 13 14 14 12 11 12 13 13 15 18 18 17 20 16 20 19 22 21 20 21 15 15 16 15 17 19 20
20 15 22 25 25 18 14 14 10 11 12 13 12 12 12 11 12 13 12 11 12 14 18 18 18 23 18 20 21 20 18 15 17 14 15 15 17 18
17 12 13 13 13 12 12 12 11 11 13 12 12 11 11 11 11 9 9 10 12 14 11 11 17 19 17 26 20 20 19 13 17 16 17 15 14 17
11 12 13 14 13 14 13 13 12 14 12 12 10 11 11 11 11 10 8 9 12 14 13 13 13 11 8 5 9 20 17 15 12 15 16 16 15 14
10 12 13 14 14 13 13 12 14 12 14 11 11 11 8 10 11 9 9 11 15 14 14 13 15 13 14 17 1 14 18 13 14 14 16 17 15 13
11 12 13 14 15 14 14 14 13 13 12 12 11 11 9 10 9 9 11 14 12 11 13 14 17 17 19 21 13 14 20 15 19 19 15 10 9 13
12 13 13 14 15 15 15 15 16 13 13 12 11 11 10 9 11 12 12 11 13 11 15 15 20 25 13 9 11 12 12 16 16 20 17 15 15 10
12 13 13 14 14 14 14 14 14 13 13 11 12 11 11 10 13 11 7 9 12 13 14 14 13 14 12 15 15 20 15 11 14 16 14 14 18 15
12 13 14 14 14 15 15 14 15 14 14 13 13 12 11 11 12 6 4 10 10 11 15 13 11 11 13 16 17 15 21 16 15 15 12 10 15 15
Wind_Direction
272 271 267 264 258 256 258 254 259 272 270 275 274 271 262 264 259 255 254 252 253 281 261 215 208 209 194 187 187 186 181 176 177 174 182 186 186 181
273 273 268 265 262 257 255 258 251 254 273 272 260 269 277 274 267 256 248 263 269 273 291 214 206 204 197 191 185 183 181 176 176 175 176 183 185 181
274 272 270 269 265 260 258 258 257 262 266 266 271 280 277 281 262 249 251 259 268 260 291 211 200 196 193 196 195 185 174 171 174 175 173 182 184 180
282 279 276 275 270 267 263 262 262 262 269 277 278 261 265 272 260 254 252 248 263 267 273 229 198 193 185 180 179 170 167 172 173 171 172 178 183 180
283 280 278 275 272 269 262 264 267 269 270 267 266 272 273 277 256 256 261 257 258 265 245 281 195 191 188 187 183 172 163 166 168 170 171 176 182 184
281 276 274 270 269 269 263 264 261 260 261 265 269 269 259 270 265 268 262 266 262 245 269 257 219 188 184 179 171 169 162 163 165 169 171 173 178 180
284 279 274 270 268 263 261 258 259 260 260 263 258 260 265 264 253 256 276 295 302 290 280 280 215 188 180 173 169 166 166 168 167 167 170 171 176 176
290 285 282 277 268 267 264 261 257 254 258 261 271 272 269 279 269 264 276 287 306 181 310 267 201 188 182 175 172 171 171 167 171 169 167 168 170 173
292 290 285 275 273 266 266 266 267 266 262 264 262 257 266 272 284 257 246 251 266 290 319 290 195 185 176 175 170 173 172 172 165 171 163 165 168 166
290 288 284 279 274 270 266 262 258 250 253 260 261 263 261 259 269 267 237 264 273 278 262 275 245 175 180 172 170 166 164 162 164 165 166 165 165 167
290 287 280 276 276 276 274 272 270 253 253 257 260 256 267 252 240 229 240 259 282 286 222 246 267 154 161 157 159 157 157 154 158 163 164 167 166 162
289 280 277 277 276 277 274 275 273 274 251 256 257 259 260 249 248 246 220 251 275 300 259 256 211 150 148 160 156 153 152 158 162 161 166 169 167 169
309 303 294 293 290 283 278 274 276 282 254 256 257 249 254 244 237 230 225 228 253 257 272 300 214 161 110 146 159 167 170 166 165 169 170 168 170 174
308 305 299 300 293 285 274 274 274 277 258 235 245 246 238 225 224 221 227 222 230 245 270 249 247 179 128 154 158 164 173 175 176 174 178 174 176 176
307 322 322 314 294 286 289 283 279 272 274 234 233 242 246 239 240 236 236 231 245 248 258 236 241 178 165 172 167 172 168 177 180 168 175 178 181 175
331 327 319 332 334 326 298 299 278 270 263 265 239 235 246 237 231 220 226 232 249 264 227 224 244 186 166 175 167 170 176 177 176 174 177 178 181 180
342 333 329 338 336 336 329 329 322 305 302 244 245 241 244 235 230 227 234 244 244 256 216 211 219 194 172 165 165 173 174 173 179 169 163 174 172 172
342 340 342 333 337 334 333 329 323 321 317 319 296 246 226 221 231 228 227 247 251 236 202 190 176 172 144 39 156 164 171 165 169 165 163 167 169 178
353 347 334 338 328 335 330 330 319 318 315 306 298 290 272 234 236 237 245 246 239 201 182 170 169 162 156 161 341 171 164 160 155 160 168 175 167 172
352 342 335 330 332 330 331 328 322 318 322 314 301 289 282 282 244 240 243 242 196 177 166 167 168 171 169 173 157 170 174 168 167 167 169 162 142 116
342 338 334 330 334 327 332 330 328 321 322 313 299 289 281 287 265 242 236 206 181 169 165 172 180 174 162 116 131 162 171 160 182 173 165 161 153 147
338 332 333 330 333 329 335 329 324 321 322 311 309 311 303 289 257 227 204 171 180 170 175 168 159 166 168 168 171 170 169 152 162 167 182 174 164 173
332 328 330 330 333 330 338 334 328 333 334 328 321 309 298 286 288 187 165 171 174 173 166 164 158 161 175 172 163 166 169 156 165 173 183 165 110 105